Snowfall_Accumulation
0.0 0.0 0.0 0.0 0.0 0.0 0.0 0.0 0.0 0.0 0.0 0.0 0.0 0.0 0.0 0.0 0.0 0.0 0.0 0.0 0.0 0.0 0.0 0.0 0.0 0.0 0.0 0.0 0.0 0.0 0.0 0.0 0.0 0.0 0.0 0.0 0.0 0.0 0.0 0.0 0.0 0.0 0.0
0.0 0.0 0.0 0.0 0.0 0.0 0.0 0.0 0.0 0.0 0.0 0.0 0.0 0.0 0.0 0.0 0.0 0.0 0.0 0.0 0.0 0.0 0.0 0.0 0.0 0.0 0.0 0.0 0.0 0.0 0.0 0.0 0.0 0.0 0.0 0.2 0.1 0.0 0.0 0.0 0.0 0.0 0.0
0.0 0.0 0.0 0.0 0.0 0.0 0.0 0.0 0.0 0.0 0.0 0.0 0.0 0.0 0.0 0.0 0.0 0.0 0.0 0.0 0.0 0.0 0.0 0.0 0.0 0.0 0.0 0.0 0.0 0.0 0.0 0.0 0.0 0.0 0.1 0.1 0.2 0.1 0.1 0.0 0.0 0.0 0.0
0.0 0.0 0.0 0.0 0.0 0.0 0.0 0.0 0.0 0.0 0.0 0.0 0.0 0.0 0.0 0.0 0.0 0.0 0.0 0.0 0.0 0.0 0.0 0.0 0.0 0.0 0.0 0.0 0.0 0.0 0.0 0.0 0.1 0.1 0.2 0.2 0.2 0.3 0.3 0.4 0.7 0.4 0.4
0.0 0.0 0.0 0.0 0.0 0.0 0.0 0.0 0.0 0.0 0.0 0.0 0.0 0.0 0.0 0.0 0.0 0.0 0.0 0.0 0.0 0.0 0.0 0.0 0.0 0.0 nan nan 0.0 0.0 0.0 0.1 0.2 0.3 0.4 0.3 0.3 0.5 0.7 0.5 1.1 0.8 0.5
0.0 0.0 0.0 0.0 0.0 0.0 0.0 0.0 0.0 0.0 0.0 0.0 0.0 0.0 0.0 0.0 nan nan 0.0 0.0 0.0 0.0 0.0 0.0 0.0 0.0 0.0 nan nan nan nan 0.0 0.1 0.8 0.5 0.4 0.1 0.6 1.0 1.4 1.8 2.7 3.1
0.0 0.0 0.0 0.0 0.0 0.0 0.0 0.0 0.0 0.0 0.0 0.0 0.0 0.0 0.0 0.0 nan nan nan 0.0 0.0 0.0 0.0 0.0 0.0 0.0 0.1 0.0 nan nan nan nan nan 0.0 0.1 0.2 0.6 0.3 0.6 1.4 1.1 2.2 1.5
0.0 0.0 0.1 0.1 0.2 0.2 0.2 0.2 0.1 0.1 0.1 0.1 0.0 0.0 0.0 0.0 nan nan nan 0.0 0.0 0.0 0.0 0.0 0.0 0.0 0.0 0.1 0.1 0.1 0.1 0.1 0.0 0.0 0.1 0.1 0.1 0.1 0.1 0.2 0.5 0.9 1.7
0.1 0.2 0.2 0.2 0.3 0.2 0.3 0.2 0.2 0.2 0.1 0.1 0.1 0.1 0.1 0.1 nan nan 0.0 0.0 0.0 0.0 0.0 0.0 0.0 0.1 nan nan 0.2 0.8 1.3 0.7 nan nan nan nan nan nan nan 1.9 7.5 9.6 5.9
0.2 0.2 0.2 0.2 0.4 0.4 0.3 0.5 0.5 0.3 0.4 1.1 0.3 0.4 0.1 0.3 nan nan nan 0.8 0.4 0.9 0.1 0.1 0.6 0.1 nan nan 0.4 1.4 3.6 1.3 1.1 1.9 0.9 0.2 nan nan nan 0.1 1.9 8.5 6.3
1.0 0.8 0.8 0.7 1.0 0.4 0.6 0.5 0.9 1.1 0.8 1.4 1.7 0.9 0.9 0.3 0.1 nan nan 0.4 1.3 2.4 2.4 2.0 1.2 nan nan nan nan 1.7 2.5 1.1 2.7 2.6 2.5 2.5 1.9 1.5 1.8 1.2 0.5 1.8 5.8
1.4 1.6 1.8 1.9 1.3 1.0 2.2 1.7 2.6 2.1 2.5 2.6 2.6 2.3 2.0 0.8 nan nan nan nan nan 3.8 2.4 2.0 1.5 nan nan nan 1.2 nan nan 1.7 4.6 5.7 6.6 6.1 4.5 3.8 2.5 1.7 0.5 0.6 0.7
3.5 4.6 4.1 3.5 2.7 2.4 3.1 2.8 4.1 3.0 4.0 2.5 3.6 3.4 2.6 2.6 2.1 nan nan nan nan 2.7 1.9 1.9 nan nan nan nan nan nan 1.6 4.7 6.0 10.1 7.7 4.8 3.5 2.7 1.5 2.2 1.3 1.6 1.4
5.5 3.6 3.0 3.6 2.7 3.1 3.2 3.4 4.8 4.7 4.2 4.4 5.2 5.2 3.7 4.2 3.4 2.9 3.5 1.9 2.4 3.0 nan 2.6 nan 2.9 nan nan 3.2 3.4 5.6 6.3 7.9 9.1 8.1 4.8 3.3 4.7 6.3 4.7 7.3 6.8 10.6
5.0 3.9 3.6 4.1 4.1 3.5 3.0 4.0 4.3 2.5 4.8 8.5 9.2 6.4 9.3 9.9 7.3 3.2 6.6 8.4 6.6 6.1 5.6 9.4 9.6 7.2 7.5 7.1 8.6 7.8 6.7 7.9 9.3 8.8 10.0 9.2 8.9 8.9 9.0 7.4 8.3 10.7 13.9
3.8 5.1 4.0 4.2 3.9 3.8 4.6 5.0 nan nan nan nan nan 7.0 8.2 nan nan nan nan nan nan nan 18.1 20.4 13.5 12.2 10.8 10.9 12.3 11.8 10.8 9.1 10.3 11.7 11.8 11.2 12.1 11.1 11.7 12.0 11.4 13.7 15.6
6.2 5.3 6.5 5.5 6.2 7.2 8.4 8.5 9.1 8.3 nan nan nan nan nan nan nan nan nan nan nan nan 28.2 18.7 18.1 14.4 14.1 12.6 13.8 13.2 12.8 11.5 11.0 13.8 12.8 13.8 14.6 15.2 15.2 14.6 12.8 12.2 15.6
8.4 3.1 9.4 9.6 9.1 10.8 11.3 11.6 12.1 12.3 12.7 11.3 nan nan nan nan nan nan nan nan 26.1 nan 23.7 25.8 22.8 19.6 17.4 16.7 15.1 15.5 14.7 14.3 13.7 14.7 14.9 18.1 19.2 20.6 19.0 17.9 15.2 17.9 16.7
11.5 10.6 11.5 12.1 12.5 12.7 13.4 12.6 12.6 12.9 13.5 15.5 15.0 14.8 8.3 nan nan nan nan 17.5 25.6 23.8 24.2 24.7 21.4 21.8 20.0 20.5 19.4 20.3 18.3 18.7 18.4 21.9 21.4 22.7 21.2 21.9 20.6 16.1 14.0 9.0 10.1
14.5 6.0 11.1 16.3 15.4 14.5 12.4 14.1 13.4 13.6 14.3 15.6 15.6 15.0 19.7 17.6 23.8 24.9 21.8 26.7 26.1 24.4 22.0 24.2 24.1 25.6 26.2 24.6 24.2 23.1 23.2 23.4 21.8 22.9 22.8 21.7 20.3 21.3 16.4 19.8 18.0 16.3 16.8
18.3 17.0 4.3 16.7 18.7 18.8 19.0 17.0 14.6 16.9 15.6 16.9 14.9 14.6 nan 19.8 20.5 22.1 24.5 23.8 25.7 27.4 24.5 25.7 26.2 30.7 31.1 33.0 29.3 28.2 26.9 19.5 22.5 24.3 25.4 24.9 24.4 28.1 19.0 14.4 18.1 19.0 19.0
18.2 18.8 19.0 20.7 17.0 17.4 18.7 15.4 16.4 16.4 16.1 15.3 14.4 14.9 nan 17.3 18.9 19.4 19.6 23.4 25.6 25.5 27.6 30.8 30.3 32.0 29.8 28.5 26.8 25.6 22.6 25.1 26.3 25.9 22.9 23.5 26.2 23.6 23.0 17.7 18.0 16.5 19.8
17.1 16.2 17.4 18.3 18.0 8.2 20.9 22.4 20.0 19.0 17.3 17.1 15.5 15.0 16.9 20.2 17.7 17.2 22.8 25.1 21.6 20.8 22.8 24.0 22.7 22.4 20.8 23.1 21.1 20.6 22.2 24.0 24.3 30.0 23.8 24.1 23.9 25.9 23.9 21.8 19.8 21.2 20.0
18.4 18.7 18.1 19.5 17.7 16.1 17.6 18.1 16.3 6.8 16.5 17.1 24.0 20.5 13.8 16.9 22.2 18.3 18.5 20.9 17.8 26.4 20.5 21.6 18.9 18.5 19.5 26.3 31.2 30.8 32.6 33.7 33.4 31.4 29.1 22.8 22.3 18.7 20.4 22.0 18.0 16.9 15.5
18.4 16.4 16.2 15.2 20.2 16.9 16.1 18.3 13.4 17.1 19.6 16.1 18.9 14.7 15.4 15.0 16.3 20.9 19.7 16.7 18.5 17.3 15.2 15.2 15.4 15.6 16.1 16.7 21.8 26.3 25.5 4.7 18.4 5.1 27.1 20.7 23.3 23.5 23.2 20.0 18.5 16.4 14.4
13.9 14.5 14.9 15.3 15.3 16.3 16.8 16.5 16.9 14.2 17.2 18.1 17.3 17.5 15.5 15.6 15.3 17.6 16.7 16.8 14.2 14.6 14.8 15.6 15.2 13.5 13.0 14.7 15.7 6.9 4.4 3.9 22.5 4.5 24.3 20.6 22.4 21.3 21.5 21.6 20.5 19.1 15.6
Water_Equivalent
0.00 0.00 0.00 0.00 0.00 0.00 0.00 0.00 0.00 0.00 0.00 0.00 0.00 0.00 0.00 0.00 0.00 0.00 0.00 0.00 0.00 0.00 0.00 0.00 0.00 0.00 0.00 0.00 0.00 0.00 0.00 0.00 0.00 0.00 0.00 0.00 0.00 0.00 0.00 0.00 0.00 0.00 0.00
0.00 0.00 0.00 0.00 0.00 0.00 0.00 0.00 0.00 0.00 0.00 0.00 0.00 0.00 0.00 0.00 0.00 0.00 0.00 0.00 0.00 0.00 0.00 0.00 0.00 0.00 0.00 0.00 0.00 0.00 0.00 0.00 0.00 0.00 0.00 0.06 0.03 0.00 0.00 0.00 0.00 0.00 0.00
0.00 0.00 0.00 0.00 0.00 0.00 0.00 0.00 0.00 0.00 0.00 0.00 0.00 0.00 0.00 0.00 0.00 0.00 0.00 0.00 0.00 0.00 0.00 0.00 0.00 0.00 0.00 0.00 0.00 0.00 0.00 0.00 0.00 0.01 0.05 0.05 0.06 0.02 0.02 0.02 0.00 0.00 0.00
0.00 0.00 0.00 0.00 0.00 0.00 0.00 0.00 0.00 0.00 0.00 0.00 0.00 0.00 0.00 0.00 0.00 0.00 0.00 0.00 0.00 0.00 0.00 0.00 0.00 0.00 0.00 0.00 0.00 0.00 0.00 0.02 0.02 0.05 0.07 0.07 0.08 0.11 0.11 0.14 0.19 0.14 0.14
0.00 0.00 0.00 0.00 0.00 0.00 0.00 0.00 0.00 0.00 0.00 0.00 0.00 0.00 0.00 0.00 0.00 0.00 0.00 0.00 0.00 0.00 0.00 0.00 0.00 0.00 nan nan 0.02 0.01 0.00 0.02 0.09 0.12 0.13 0.12 0.10 0.15 0.19 0.18 0.33 0.22 0.14
0.00 0.00 0.00 0.00 0.00 0.00 0.00 0.00 0.00 0.00 0.00 0.00 0.00 0.00 0.00 0.00 nan nan 0.00 0.00 0.00 0.00 0.00 0.00 0.00 0.00 0.00 nan nan nan nan 0.00 0.01 0.26 0.15 0.11 0.02 0.21 0.32 0.39 0.45 0.55 0.60
0.00 0.00 0.00 0.00 0.00 0.00 0.00 0.00 0.00 0.00 0.00 0.01 0.01 0.00 0.00 0.00 nan nan nan 0.01 0.01 0.00 0.00 0.00 0.00 0.00 0.02 0.00 nan nan nan nan nan 0.00 0.02 0.07 0.13 0.05 0.13 0.35 0.26 0.54 0.39
0.00 0.00 0.01 0.02 0.03 0.04 0.04 0.03 0.03 0.02 0.02 0.02 0.01 0.00 0.00 0.00 nan nan nan 0.00 0.00 0.00 0.00 0.00 0.01 0.01 0.01 0.02 0.02 0.03 0.02 0.02 0.02 0.01 0.02 0.03 0.02 0.02 0.02 0.04 0.10 0.20 0.40
0.03 0.03 0.04 0.04 0.05 0.04 0.06 0.04 0.04 0.04 0.03 0.02 0.02 0.04 0.04 0.03 nan nan 0.00 0.01 0.01 0.01 0.01 0.01 0.01 0.01 nan nan 0.05 0.24 0.40 0.23 nan nan nan nan nan nan nan 0.58 1.97 2.30 1.23
0.03 0.04 0.04 0.04 0.08 0.07 0.05 0.09 0.09 0.07 0.09 0.27 0.08 0.10 0.03 0.10 nan nan nan 0.28 0.14 0.27 0.04 0.02 0.20 0.03 nan nan 0.10 0.39 0.89 0.33 0.34 0.64 0.31 0.06 nan nan nan 0.04 0.53 1.91 1.24
0.13 0.11 0.12 0.10 0.17 0.07 0.10 0.10 0.18 0.24 0.16 0.32 0.36 0.22 0.25 0.11 0.04 nan nan 0.13 0.40 0.65 0.66 0.51 0.34 nan nan nan nan 0.48 0.59 0.34 0.89 0.79 0.73 0.75 0.54 0.42 0.49 0.33 0.14 0.46 1.15
0.19 0.22 0.26 0.35 0.25 0.20 0.51 0.35 0.58 0.46 0.53 0.51 0.56 0.47 0.45 0.18 nan nan nan nan nan 1.08 0.61 0.51 0.40 nan nan nan 0.38 nan nan 0.55 1.37 1.59 1.43 1.19 0.87 0.72 0.48 0.32 0.09 0.13 0.15
0.52 0.75 0.71 0.63 0.58 0.56 0.79 0.58 0.85 0.67 0.83 0.46 0.69 0.65 0.49 0.48 0.48 nan nan nan nan 0.74 0.53 0.47 nan nan nan nan nan nan 0.53 1.15 1.45 1.80 1.25 0.78 0.56 0.43 0.23 0.36 0.21 0.28 0.24
0.95 0.55 0.44 0.57 0.47 0.56 0.69 0.75 1.08 0.96 0.81 0.87 0.98 0.92 0.63 0.68 0.63 0.60 0.87 0.63 0.74 0.82 nan 0.69 nan 0.64 nan nan 0.71 0.67 0.92 1.04 1.18 1.26 1.02 0.62 0.53 0.73 0.94 0.74 1.00 0.94 1.52
0.70 0.41 0.49 0.66 0.71 0.47 0.41 0.72 0.71 0.43 0.93 1.61 1.87 1.30 1.57 1.59 1.25 0.65 1.40 1.70 1.55 1.47 1.46 1.89 1.59 1.10 1.06 0.98 1.18 1.10 0.99 1.14 1.27 1.23 1.32 1.18 1.15 1.21 1.17 1.05 1.17 1.49 1.78
0.44 0.61 0.56 0.57 0.52 0.50 0.58 0.67 nan nan nan nan nan 1.35 1.70 nan nan nan nan nan nan nan 3.04 3.06 1.72 1.50 1.23 1.20 1.34 1.26 1.16 1.13 1.23 1.42 1.47 1.40 1.49 1.34 1.37 1.47 1.44 1.69 1.82
0.82 0.56 0.69 0.63 0.71 0.84 0.97 1.09 1.18 1.11 nan nan nan nan nan nan nan nan nan nan nan nan 4.45 2.52 2.12 1.58 1.48 1.24 1.39 1.30 1.25 1.15 1.06 1.45 1.38 1.52 1.64 1.75 1.80 1.70 1.48 1.42 1.90
0.94 1.01 1.04 1.01 1.02 1.14 1.21 1.28 1.30 1.41 1.55 1.38 nan nan nan nan nan nan nan nan 3.87 nan 3.28 3.33 2.79 2.25 1.81 1.67 1.46 1.46 1.40 1.38 1.33 1.46 1.53 2.00 2.21 2.45 2.23 2.15 1.77 2.15 2.00
1.17 1.06 1.17 1.25 1.29 1.33 1.40 1.27 1.30 1.30 1.38 1.62 1.59 1.68 1.45 nan nan nan nan 2.64 3.46 2.97 2.95 3.04 2.55 2.40 2.04 2.14 1.99 2.19 1.85 1.89 1.84 2.41 2.39 2.64 2.46 2.60 2.48 1.84 1.53 1.36 1.49
1.40 1.45 1.40 1.66 1.49 1.39 1.16 1.34 1.26 1.28 1.34 1.50 1.54 1.46 2.22 2.34 3.10 3.17 2.64 3.57 3.43 3.03 2.69 2.91 2.92 3.24 3.24 2.95 2.88 2.66 2.65 2.69 2.40 2.57 2.56 2.45 2.30 2.50 1.70 2.37 2.09 1.76 1.97
1.80 1.59 1.41 1.52 1.81 1.82 1.85 1.55 1.26 1.60 1.44 1.63 1.36 1.43 nan 2.18 2.26 2.52 2.92 2.72 3.14 3.39 2.80 3.05 3.16 4.01 4.12 4.53 3.72 3.53 3.24 2.02 2.52 2.80 3.00 2.93 2.85 3.52 2.15 1.42 2.06 2.26 2.22
1.76 1.85 1.87 2.03 1.48 1.55 1.77 1.30 1.44 1.45 1.40 1.28 1.15 1.29 nan 1.62 1.82 1.89 1.97 2.63 3.08 3.04 3.43 4.01 3.93 4.31 3.85 3.58 3.21 3.00 2.46 2.94 3.21 3.01 2.42 2.53 3.03 2.64 2.64 1.82 1.92 1.70 2.29
1.51 1.34 1.48 1.53 1.51 1.61 1.83 2.09 1.80 1.71 1.51 1.59 1.41 1.33 1.57 2.10 1.73 1.64 2.54 2.85 2.24 2.10 2.43 2.61 2.44 2.39 2.21 2.60 2.30 2.23 2.41 2.72 2.81 3.85 2.55 2.67 2.58 3.03 2.75 2.44 2.17 2.40 2.29
1.48 1.53 1.49 1.83 1.59 1.35 1.58 1.68 1.44 1.60 1.50 1.61 2.65 2.12 1.21 1.60 2.40 1.73 1.82 2.21 1.77 3.20 2.21 2.39 1.93 1.89 2.12 3.34 4.32 4.25 4.63 4.89 4.66 4.23 3.75 2.44 2.40 2.14 2.10 2.50 1.96 1.92 1.59
1.65 1.39 1.40 1.29 2.02 1.56 1.45 1.79 1.18 1.69 2.05 1.57 2.00 1.39 1.43 1.34 1.54 2.31 2.12 1.68 1.94 1.79 1.51 1.51 1.57 1.63 1.69 1.79 2.60 3.42 3.67 1.55 2.73 1.68 3.25 2.17 2.61 2.65 2.53 2.15 2.00 1.68 1.47
1.21 1.28 1.33 1.38 1.36 1.53 1.63 1.59 1.66 1.28 1.70 1.83 1.70 1.73 1.46 1.46 1.47 1.84 1.69 1.71 1.36 1.42 1.49 1.63 1.60 1.39 1.32 1.53 1.65 1.74 1.44 1.29 2.89 1.49 2.66 2.08 2.38 2.15 2.12 2.16 2.00 1.90 1.52
SL_Ratio
nan nan nan nan nan nan nan nan nan nan nan nan nan nan nan nan nan nan nan nan nan nan nan nan nan nan nan nan nan nan nan nan nan 3.0 nan nan nan nan nan nan nan nan nan
nan nan nan nan nan nan nan nan nan nan nan nan nan nan nan nan nan nan nan nan nan nan nan nan nan nan nan nan nan nan nan nan nan nan 3.3 2.8 2.7 nan nan nan nan nan nan
nan nan nan nan nan nan nan nan nan nan nan nan nan nan nan nan nan nan nan nan nan nan nan nan nan nan nan nan nan nan nan nan nan 3.0 2.6 2.5 2.7 2.7 2.7 2.5 3.3 3.3 nan
nan nan nan nan nan nan nan nan nan nan nan nan nan nan nan nan nan nan nan nan nan nan nan nan nan nan nan nan nan nan nan 2.5 2.6 2.5 2.5 2.5 2.7 2.6 2.5 2.7 3.5 2.7 2.8
nan nan nan nan nan nan nan nan nan nan nan nan nan nan nan nan nan nan nan nan nan nan nan nan nan nan nan nan 2.5 2.5 2.5 2.6 2.6 2.6 2.8 2.7 2.8 3.6 3.4 3.0 3.4 3.5 3.6
nan nan nan nan nan nan nan nan nan nan nan nan nan nan nan nan nan nan nan nan nan nan nan nan nan nan nan nan nan nan nan 5.7 5.3 3.1 3.0 3.2 3.1 3.0 3.1 3.7 4.0 4.9 5.1
nan nan 3.3 5.0 5.0 3.3 3.3 2.0 3.3 4.0 4.5 4.3 4.8 3.8 3.6 5.0 nan nan nan 2.4 2.4 nan nan nan 0.0 nan 2.5 5.0 nan nan nan nan nan 4.7 3.8 3.4 4.4 4.9 4.4 4.1 4.2 4.1 4.0
3.3 3.3 3.9 4.3 4.9 5.4 5.4 5.3 4.9 4.7 4.6 4.9 4.4 3.3 3.3 nan nan nan nan nan nan nan nan 2.0 2.8 2.7 3.2 5.4 6.0 5.2 3.3 2.7 2.5 2.2 2.8 2.7 3.5 4.1 4.2 4.9 4.8 4.4 4.3
5.0 5.9 5.9 5.6 5.1 5.5 5.0 5.4 5.5 5.1 4.8 3.5 3.2 3.2 3.0 2.8 nan nan 0.0 2.5 2.8 2.7 2.6 2.6 2.4 3.6 nan nan 4.2 3.3 3.2 2.9 nan nan nan nan nan nan nan 3.2 3.8 4.2 4.8
6.5 6.5 6.1 5.6 5.2 5.7 5.9 5.6 5.4 4.7 5.2 4.2 4.3 3.6 3.3 3.0 nan nan nan 2.8 3.1 3.3 3.3 3.1 3.0 4.0 nan nan 4.1 3.5 4.1 4.1 3.2 3.0 3.0 3.0 nan nan nan 3.3 3.6 4.4 5.1
7.3 7.3 7.0 6.6 5.6 5.8 5.4 5.4 5.1 4.6 5.1 4.4 4.6 4.3 3.6 3.1 3.2 nan nan 2.9 3.2 3.6 3.6 3.9 3.5 nan nan nan nan 3.5 4.3 3.4 3.1 3.3 3.4 3.4 3.5 3.6 3.7 3.5 3.7 3.9 5.1
7.1 7.2 6.9 5.5 5.3 5.2 4.2 4.9 4.5 4.6 4.8 5.0 4.6 4.8 4.5 4.8 nan nan nan nan nan 3.5 4.0 3.9 3.6 nan nan nan 3.0 nan nan 3.1 3.4 3.6 4.6 5.2 5.2 5.2 5.1 5.3 5.4 4.7 4.6
6.7 6.1 5.8 5.6 4.7 4.3 3.9 4.8 4.8 4.4 4.9 5.5 5.1 5.2 5.3 5.3 4.3 nan nan nan nan 3.7 3.5 3.9 nan nan nan nan nan nan 3.0 4.1 4.1 5.6 6.1 6.2 6.2 6.3 6.4 6.3 6.3 5.8 5.7
5.8 6.7 7.0 6.3 5.7 5.6 4.7 4.5 4.4 4.9 5.1 5.0 5.3 5.7 5.9 6.1 5.4 4.9 4.0 3.1 3.2 3.6 nan 3.8 nan 4.5 nan nan 4.5 5.1 6.0 6.1 6.6 7.3 8.0 7.7 6.3 6.4 6.6 6.4 7.3 7.2 7.0
7.2 9.4 7.4 6.3 5.8 7.5 7.4 5.6 6.0 5.9 5.2 5.2 4.9 4.9 5.9 6.3 5.8 5.0 4.7 4.9 4.3 4.2 3.8 5.0 6.0 6.6 7.1 7.3 7.3 7.1 6.8 6.9 7.3 7.1 7.6 7.8 7.8 7.4 7.7 7.0 7.1 7.2 7.8
8.8 8.3 7.1 7.2 7.4 7.6 7.8 7.5 nan nan nan nan nan 5.2 4.8 nan nan nan nan nan nan nan 5.9 6.7 7.8 8.1 8.8 9.1 9.2 9.4 9.3 8.0 8.4 8.3 8.1 8.0 8.1 8.3 8.5 8.1 7.9 8.1 8.6
7.6 9.5 9.3 8.6 8.8 8.6 8.6 7.8 7.7 7.5 nan nan nan nan nan nan nan nan nan nan nan nan 6.3 7.4 8.5 9.1 9.5 10.2 9.9 10.1 10.2 10.0 10.4 9.5 9.2 9.1 8.9 8.6 8.4 8.6 8.6 8.6 8.2
9.0 3.0 9.1 9.4 8.9 9.5 9.3 9.0 9.3 8.7 8.2 8.2 nan nan nan nan nan nan nan nan 6.7 nan 7.2 7.7 8.2 8.7 9.6 10.0 10.4 10.6 10.5 10.3 10.3 10.1 9.7 9.0 8.7 8.4 8.5 8.3 8.6 8.3 8.3
9.8 10.0 9.8 9.7 9.7 9.5 9.5 9.9 9.7 9.9 9.8 9.5 9.5 8.8 5.7 nan nan nan nan 6.6 7.4 8.0 8.2 8.1 8.4 9.1 9.8 9.6 9.7 9.2 9.9 9.9 10.0 9.1 9.0 8.6 8.6 8.4 8.3 8.7 9.1 6.6 6.8
10.4 4.1 8.0 9.8 10.3 10.4 10.7 10.5 10.6 10.6 10.7 10.4 10.1 10.2 8.8 7.5 7.7 7.8 8.3 7.5 7.6 8.1 8.2 8.3 8.2 7.9 8.1 8.3 8.4 8.7 8.8 8.7 9.1 8.9 8.9 8.9 8.8 8.5 9.6 8.3 8.6 9.3 8.6
10.2 10.7 3.0 11.0 10.4 10.4 10.3 10.9 11.6 10.6 10.9 10.4 10.9 10.2 nan 9.1 9.1 8.8 8.4 8.7 8.2 8.1 8.7 8.4 8.3 7.6 7.6 7.3 7.9 8.0 8.3 9.7 8.9 8.7 8.5 8.5 8.6 8.0 8.9 10.2 8.8 8.4 8.5
10.3 10.2 10.2 10.2 11.4 11.2 10.6 11.8 11.4 11.3 11.5 11.9 12.5 11.6 nan 10.7 10.4 10.3 9.9 8.9 8.3 8.4 8.1 7.7 7.7 7.4 7.8 8.0 8.4 8.5 9.2 8.5 8.2 8.6 9.5 9.3 8.7 8.9 8.7 9.7 9.4 9.7 8.7
11.3 12.1 11.8 11.9 11.9 5.1 11.4 10.7 11.1 11.1 11.4 10.7 11.0 11.3 10.8 9.6 10.2 10.5 9.0 8.8 9.6 9.9 9.4 9.2 9.3 9.3 9.4 8.9 9.2 9.2 9.2 8.8 8.6 7.8 9.3 9.0 9.2 8.6 8.7 8.9 9.1 8.9 8.8
12.4 12.2 12.1 10.7 11.1 11.9 11.1 10.8 11.4 4.3 11.0 10.6 9.1 9.7 11.4 10.5 9.3 10.6 10.1 9.5 10.0 8.2 9.3 9.0 9.8 9.8 9.2 7.9 7.2 7.2 7.0 6.9 7.2 7.4 7.8 9.3 9.3 8.7 9.7 8.8 9.2 8.8 9.8
11.2 11.9 11.6 11.8 10.0 10.8 11.1 10.3 11.4 10.1 9.6 10.3 9.4 10.6 10.8 11.2 10.6 9.1 9.3 9.9 9.5 9.7 10.0 10.1 9.8 9.6 9.5 9.3 8.4 7.7 7.0 3.0 6.7 3.0 8.3 9.6 8.9 8.9 9.2 9.3 9.3 9.8 9.8
11.5 11.4 11.2 11.1 11.2 10.6 10.3 10.4 10.2 11.0 10.1 9.9 10.2 10.1 10.7 10.7 10.4 9.6 9.9 9.8 10.5 10.2 9.9 9.6 9.5 9.7 9.9 9.6 9.5 4.0 3.0 3.0 7.8 3.0 9.1 9.9 9.4 9.9 10.1 10.0 10.2 10.1 10.3